Home   Weather   Ruda Śląska   Past weeks

Flag for Poland Past Weather in Ruda Śląska, Poland — Yesterday and Last 2 Weeks

Now
23 °F

Snow flurries. Ice fog.


Feels Like: 16 °F
Forecast: 25 / 30 °F
Wind: 6 mph from West

Location: Katowice Airport

Current Time: Jan 24, 2017 at 6:29:46 pm

Latest Report: Jan 24, 2017 at 6:00 pm


Visibility: 3 mi

Pressure: 30.30 "Hg

Humidity: 93%

Dew Point: 21 °F

Location of Ruda ŚląskaLocation

Past Weather in Ruda Śląska — Graph

°F

Ruda Śląska Temperature Yesterday

Maximum temperature yesterday: 36 °F (at 2:30 pm)
Minimum temperature yesterday: 14 °F (at 8:00 am)
Average temperature yesterday: 24 °F

High & Low Weather Summary for the Past Weeks

 TemperatureHumidityPressure
High39 °F (Jan 13, 11:30 am)100% (Jan 15, 5:30 am)30.69 "Hg (Jan 15, 5:30 am)
Low-2 °F (Jan 9, 9:30 pm)52% (Jan 23, 2:30 pm)29.30 "Hg (Jan 13, 2:00 pm)
Average24 °F85%30.15 "Hg
* Reported Jan 9 5:00 pm — Jan 24 5:30 pm, Ruda Śląska, Weather by CustomWeather, © 2017

Note: Actual official high and low records may vary slightly from our data, if they occured in-between our weather recording intervals... More about our weather records

Advertising

Ruda Śląska Weather History for the Previous 24 Hours

Scroll right to see more
 ConditionsComfort  
Time TempWeatherWind HumidityBarometerVisibility
5:30 pm
Tue, Jan 24
23 °FLight snow. Mostly cloudy.6 mph93%30.30 "Hg4 mi
5:00 pm23 °FLight snow. Partly cloudy.5 mph93%30.30 "Hg4 mi
4:30 pm23 °FLight snow. Ice fog.6 mph93%30.30 "Hg2 mi
4:00 pm23 °FSnow flurries. Ice fog.5 mph93%30.30 "Hg3 mi
3:30 pm23 °FSnow flurries. Mostly cloudy.5 mph93%30.27 "Hg4 mi
3:00 pm23 °FSnow flurries. Low clouds.6 mph86%30.27 "Hg4 mi
2:30 pm23 °FSnow flurries. Low clouds.6 mph86%30.27 "Hg4 mi
2:00 pm21 °FSnow flurries. Ice fog.6 mph93%30.27 "Hg3 mi
1:30 pm21 °FSnow flurries. Ice fog.6 mph93%30.27 "Hg2 mi
1:00 pm21 °FSnow flurries. Ice fog.5 mph93%30.27 "Hg2 mi
12:30 pm21 °FSnow flurries. Ice fog.6 mph93%30.27 "Hg2 mi
12:00 pm21 °FSnow flurries. Ice fog.7 mph93%30.27 "Hg2 mi
11:30 am21 °FSnow flurries. Ice fog.9 mph93%30.27 "Hg2 mi
11:00 am21 °FSnow flurries. Ice fog.6 mph93%30.27 "Hg1 mi
10:30 am21 °FSnow flurries. Ice fog.7 mph93%30.27 "Hg1 mi
10:00 am21 °FSnow flurries. Ice fog.7 mph93%30.27 "Hg1 mi
9:30 am19 °FSnow flurries. Ice fog.6 mph93%30.27 "Hg1 mi
9:00 am19 °FIce fog.3 mph93%30.24 "Hg1 mi
8:30 am19 °FIce fog.3 mph93%30.24 "Hg1 mi
8:00 am19 °FIce fog.2 mph93%30.24 "Hg1 mi
7:30 am18 °FIce fog.3 mph93%30.24 "Hg1 mi
7:00 am18 °FIce fog.5 mph93%30.21 "Hg1 mi
6:30 am18 °FIce fog.6 mph93%30.21 "Hg1 mi
6:00 am18 °FIce fog.5 mph93%30.21 "Hg1 mi
5:30 am18 °FIce fog.5 mph93%30.21 "Hg1 mi
5:00 am18 °FIce fog.5 mph93%30.21 "Hg0 mi
4:30 am18 °FIce fog.6 mph93%30.21 "Hg1 mi
4:00 am18 °FIce fog.7 mph93%30.21 "Hg1 mi
3:30 am14 °FIce fog.8 mph92%30.21 "Hg1 mi
3:00 am14 °FCold.6 mph92%30.21 "Hg1 mi
2:30 am14 °FIce fog.5 mph92%30.21 "Hg1 mi
2:00 am16 °FIce fog.6 mph93%30.21 "Hg1 mi
1:30 am16 °FIce fog.7 mph86%30.21 "Hg2 mi
1:00 am19 °FIce fog.6 mph86%30.21 "Hg2 mi
12:30 am19 °FIce fog.5 mph86%30.21 "Hg2 mi
12:00 am18 °FIce fog.5 mph79%30.21 "Hg1 mi
11:30 pm
Mon, Jan 23
21 °FIce fog.5 mph86%30.21 "Hg2 mi
11:00 pm23 °FIce fog.5 mph74%30.21 "Hg2 mi
10:30 pm21 °FIce fog.5 mph80%30.21 "Hg1 mi
10:00 pm23 °FIce fog.3 mph80%30.21 "Hg2 mi
9:30 pm23 °FIce fog.5 mph80%30.21 "Hg2 mi
9:00 pm25 °FIce fog.6 mph74%30.21 "Hg3 mi
8:30 pm25 °FIce fog.6 mph74%30.21 "Hg3 mi
8:00 pm25 °FClear.7 mph74%30.21 "Hg4 mi
7:30 pm27 °FIce fog.6 mph74%30.18 "Hg2 mi
7:00 pm27 °FIce fog.5 mph74%30.18 "Hg3 mi
6:30 pm25 °FIce fog.1 mph74%30.18 "Hg3 mi
6:00 pm25 °FIce fog.3 mph74%30.18 "Hg3 mi
Weather by CustomWeather, © 2017

See weather overviewHow to use our weather pages